Allentown, PA

9:17 PM EST on January 17, 2018 (GMT -0500)
Lehigh Valley International

Weather History for KABE - October, 2013

Change the Weather History Date:

Saturday, October 5, 2013

  Actual Average Record
Temperature  
Mean Temperature 74 °F 56 °F  
Max Temperature 85 °F 67 °F 92 °F (1941)
Min Temperature 63 °F 45 °F 31 °F (1996)
Degree Days  
Heating Degree Days 0 9  
Month to date heating degree days 0 43  
Since 1 July heating degree days 124 158  
Cooling Degree Days 9 0  
Month to date cooling degree days 18 3  
Year to date cooling degree days 921 753  
Growing Degree Days 24 (Base 50)    
Moisture  
Dew Point 64 °F    
Average Humidity 74    
Maximum Humidity 100    
Minimum Humidity 48    
Precipitation  
Precipitation 0.02 in 0.14 in 2.76 in (1995)
Month to date precipitation 0.17 0.70  
Year to date precipitation 37.09 35.09  
Snow  
Snow 0.00 in 0.00 in 0.00 in ()
Month to date snowfall 0.0 0.0  
Since 1 July snowfall 0.0 0.0  
Since 1 September snowfall 0.0 0.0  
Snow Depth 0.00 in    
Sea Level Pressure  
Sea Level Pressure 30.05 in    
Wind  
Wind Speed 2 mph (SE)    
Max Wind Speed 9 mph    
Max Gust Speed 13 mph    
Visibility 7 miles    
Events Rain    
T = Trace of Precipitation, MM = Missing Value Source: NWS Daily Summary

Daily Weather History Graph

Daily Weather History Graph

Search for Another Location

Airport or City:

Trip Planner

Search our weather history database for the weather conditions in past years. The results will help you decide how hot, cold, wet, or windy it might be!

Date:

Astronomy

Oct. 05, 2013 Rise Set
Actual Time 7:02 AM EDT 6:36 PM EDT
Civil Twilight 6:35 AM EDT 7:04 PM EDT
Nautical Twilight 6:03 AM EDT 7:35 PM EDT
Astronomical Twilight 5:31 AM EDT 8:07 PM EDT
Moon 7:39 AM EDT (10/5) 6:53 PM EDT (10/5)
Length of Visible Light 12h 28m
Length of Day
11h 34m
New Moon, 0% of the Moon is Illuminated
Oct 5
New Moon
Oct 11
First Quarter
Oct 18
Full
Oct 26
Last Quarter
Nov 3
New

Hourly Weather History & Observations

Time (EDT) Temp. Heat Index Dew Point Humidity Pressure Visibility Wind Dir Wind Speed Gust Speed Precip Events Conditions
12:34 AM 69.8 °F - 64.4 °F 83% 30.05 in 1.8 mi NNW 3.5 mph 19.6 mph 0.06 in Rain Heavy Rain
12:44 AM 68.0 °F - 66.2 °F 94% 30.04 in 3.0 mi South 4.6 mph - 0.15 in Rain Light Rain
12:51 AM 68.0 °F - 66.0 °F 93% 30.04 in 6.0 mi Calm Calm - 0.15 in Rain Light Rain
1:51 AM 66.9 °F - 64.9 °F 93% 30.04 in 5.0 mi Calm Calm - N/A   Scattered Clouds
2:51 AM 64.9 °F - 64.0 °F 97% 30.04 in 4.0 mi NNW 3.5 mph - N/A   Partly Cloudy
3:51 AM 66.0 °F - 64.0 °F 93% 30.03 in 3.0 mi Calm Calm - N/A   Scattered Clouds
4:51 AM 64.9 °F - 63.0 °F 93% 30.04 in 1.8 mi Calm Calm - N/A   Clear
4:59 AM 64.4 °F - 62.6 °F 94% 30.05 in 6.0 mi Calm Calm - N/A   Partly Cloudy
5:51 AM 64.0 °F - 63.0 °F 96% 30.06 in 6.0 mi Calm Calm - N/A   Clear
6:51 AM 64.9 °F - 63.0 °F 93% 30.06 in 7.0 mi Calm Calm - N/A   Partly Cloudy
7:51 AM 64.0 °F - 62.1 °F 93% 30.08 in 7.0 mi Calm Calm - N/A   Clear
8:51 AM 66.9 °F - 64.0 °F 90% 30.09 in 7.0 mi Calm Calm - N/A   Clear
9:51 AM 71.1 °F - 64.0 °F 78% 30.10 in 7.0 mi Calm Calm - N/A   Clear
10:51 AM 75.0 °F - 64.9 °F 71% 30.09 in 7.0 mi Calm Calm - N/A   Clear
11:51 AM 78.1 °F - 66.0 °F 66% 30.07 in 8.0 mi Calm Calm - N/A   Clear
12:51 PM 80.1 °F 81.7 °F 64.0 °F 58% 30.05 in 10.0 mi Calm Calm - N/A   Clear
1:51 PM 82.0 °F 83.0 °F 62.1 °F 51% 30.03 in 10.0 mi Calm Calm - N/A   Clear
2:51 PM 82.9 °F 84.0 °F 63.0 °F 51% 30.02 in 10.0 mi South 3.5 mph - N/A   Clear
3:51 PM 84.0 °F 84.5 °F 62.1 °F 47% 30.01 in 10.0 mi Calm Calm - N/A   Partly Cloudy
4:51 PM 82.0 °F 83.8 °F 64.9 °F 56% 30.00 in 10.0 mi SW 4.6 mph - N/A   Partly Cloudy
5:51 PM 79.0 °F - 64.0 °F 60% 30.01 in 10.0 mi NW 3.5 mph - N/A   Overcast
6:51 PM 75.0 °F - 66.9 °F 76% 30.02 in 10.0 mi Calm Calm - 0.00 in   Overcast
7:51 PM 73.0 °F - 66.9 °F 81% 30.02 in 10.0 mi Calm Calm - N/A   Mostly Cloudy
8:51 PM 75.9 °F - 66.0 °F 71% 30.03 in 10.0 mi ESE 5.8 mph - N/A   Partly Cloudy
9:51 PM 73.9 °F - 68.0 °F 82% 30.04 in 8.0 mi SE 3.5 mph - 0.02 in   Scattered Clouds
10:51 PM 72.0 °F - 66.9 °F 84% 30.06 in 7.0 mi ESE 4.6 mph - N/A   Mostly Cloudy
11:51 PM 71.1 °F - 66.0 °F 84% 30.06 in 6.0 mi SE 4.6 mph - 0.00 in Rain Light Rain